Weather in Molodezhnoye

Russia / Sakhalin District     51°01′03″N   142°39′06″E
temp.,
°C
wind,
m/s
gust,
m/s
humid.,
%
clouds,
%
prec.,
mm/h
press.,
hPa
HPBL,
m
21 april, wed
wed2123:00−5s1197100 0.2 100421
02:00−4n2598100 0.1 1006171
05:00−3n3996100 0.2 1008505
08:00−2n41194100 0.2 1011538
11:000n51094100 0.3 1012915
14:00+2nne5989100 0.2 10151058
17:00+2nne4988100 0.3 1016898
20:000nne4108980 0.0 1019834
22 april, thu
thu2223:000nne398998 0.1 1022702
02:00−2n239634 0.0 102385
05:00−5ne119939 0.0 102513
08:00−2nw009342 0.0 1026114
11:00+5ssw13805 0.0 1025362
14:00+10ssw35645 0.0 1024793
17:00+12ssw366520 0.0 10221007
20:00+6s22925 0.0 102229
23 april, fri
fri2323:00+4s41186100 0.0 1023306
02:00+1s4109395 0.0 1022224
05:00+1s41390100 0.0 1020270
08:00+4s4127793 0.0 1019334
11:00+10s4762100 0.0 1017412
14:00+13ssw1356100 0.0 1017765
17:00+9n4465100 0.0 1018481
20:00+5n358280 0.0 1019615
24 april, sat
sat2423:00+1nne4788100 0.4 1019500
02:00−1ne51096100 4.0 1018603
05:00−3nne41095100 10.4 1017657
08:00−3nne3995100 4.3 1017634
11:00−2n3690100 5.1 1017722
14:000n356998 0.3 10151371
17:00+1nw3573100 0.7 10141059
20:00−2sw11885 0.2 101310
25 april, sun
sun2523:00−7sse21945 0.2 101323
02:00−7s23935 0.0 101254
05:00−8s1195100 0.0 101131
08:00−3s2388100 0.1 1011256
11:00+1wnw127785 0.2 1010863
14:00+3nw346599 0.9 10091459
17:00+2nw576494 1.9 10101564
20:00−1nnw11786 0.3 101118